Tracking 28096 objects as of 29-Sep-2023
HD Live streaming from Space Station
objects crossing your sky now

BS-3A (YURI 3A)

Track BS-3A (YURI 3A) now!
BS-3A (YURI 3A) is classified as:


NORAD ID: 20771
Int'l Code: 1990-077A
Perigee: 36,157.2 km
Apogee: 36,258.2 km
Inclination: 15.5 °
Period: 1,457.3 minutes
Semi major axis: 42578 km
RCS: 1.6597 m2 (large)
Launch date: August 28, 1990
Source: Japan (JPN)
Launch site: TANEGASHIMA SPACE CENTER (TNSTA)
Your satellite tracking list
Your tracking list is empty




NASA's NSSDC Master Catalog

Two Line Element Set (TLE):
1 20771U 90077A   23271.54840943 -.00000277  00000-0  00000-0 0  9999
2 20771  15.5487   5.1378 0011855 225.3559 113.2014  0.98813118125766
Source of the keplerian elements: AFSPC